5 kleines Gehege Affenhaus Messungen

Zurück zum Überblick

Zeitpunkt Temperatur Luftfeuchte
27.03.2019 03:15:34 18,0 C 47,0%
27.03.2019 03:08:30 17,8 C 47,0%
27.03.2019 03:01:29 17,7 C 47,0%
27.03.2019 02:54:26 17,5 C 47,0%
27.03.2019 02:47:26 17,3 C 47,0%
27.03.2019 02:40:24 17,2 C 47,0%
27.03.2019 02:33:21 17,0 C 47,0%
27.03.2019 02:26:18 17,0 C 47,0%
27.03.2019 02:19:16 17,1 C 47,0%
27.03.2019 02:12:15 17,2 C 47,0%
27.03.2019 02:05:13 17,3 C 47,0%
27.03.2019 01:58:11 17,4 C 46,0%
27.03.2019 01:51:09 17,5 C 46,0%
27.03.2019 01:44:06 17,5 C 46,0%
27.03.2019 01:37:03 17,6 C 46,0%
27.03.2019 01:30:01 17,7 C 46,0%
27.03.2019 01:23:00 17,8 C 46,0%
27.03.2019 01:15:56 17,9 C 46,0%
27.03.2019 01:08:54 18,0 C 46,0%
27.03.2019 01:01:53 18,1 C 46,0%
27.03.2019 00:54:53 18,2 C 46,0%
27.03.2019 00:47:50 18,3 C 46,0%
27.03.2019 00:40:50 18,3 C 46,0%
27.03.2019 00:33:48 18,1 C 46,0%
27.03.2019 00:26:46 18,0 C 47,0%
27.03.2019 00:19:45 17,8 C 47,0%
27.03.2019 00:12:43 17,6 C 47,0%
27.03.2019 00:05:42 17,5 C 47,0%
26.03.2019 23:58:40 17,3 C 47,0%
26.03.2019 23:51:38 17,2 C 47,0%
26.03.2019 23:44:35 17,1 C 47,0%
26.03.2019 23:37:34 17,1 C 47,0%
26.03.2019 23:30:33 17,2 C 47,0%
26.03.2019 23:23:32 17,3 C 47,0%
26.03.2019 23:16:29 17,3 C 46,0%
26.03.2019 23:09:29 17,4 C 46,0%
26.03.2019 23:02:27 17,5 C 46,0%
26.03.2019 22:55:24 17,6 C 46,0%
26.03.2019 22:48:20 17,7 C 46,0%
26.03.2019 22:41:17 17,7 C 46,0%
26.03.2019 22:34:14 17,8 C 46,0%
26.03.2019 22:27:12 17,9 C 46,0%
26.03.2019 22:20:11 18,0 C 46,0%
26.03.2019 22:13:07 18,1 C 46,0%
26.03.2019 22:06:07 18,1 C 46,0%
26.03.2019 21:59:05 18,0 C 47,0%
26.03.2019 21:52:03 17,8 C 47,0%
26.03.2019 21:45:01 17,6 C 47,0%
26.03.2019 21:37:58 17,5 C 47,0%
26.03.2019 21:30:56 17,3 C 47,0%